Links & Downloads

Hier präsentieren wir eine Auswahl wichtiger Downloads und interessanter Internetseiten. Wir versuchen, diese Seite immer auf aktuellem Stand zu halten.

Dokumente & Programme

  FluPP, ein kostenloses Flugbuch für Windows, mit dem man seine Flüge (Segelflug, Ultraleicht, Motorsegler, Motorflug...) verwalten kann
 
OLC - SegelflugszeneOLC - Segelflugszene

  Alle Streckenflüge des VfS |   Streckenflüge ab Krefeld |   Landesliga - Tabelle

Wetter


METAR / TAF Düsseldorf

[Quelle: ADDS]
METAR
EDDL 181050Z 03008KT 340V080 CAVOK 05/M04 Q1029 NOSIG =
EDDL 180500Z 1806/1912 02005KT CAVOK BECMG 1809/1812 04010KT PROB30 TEMPO 1910/1912 05015G25KT
TAF
EDDL 180500Z 1806/1912 02005KT CAVOK BECMG 1809/1812 04010KT PROB30 TEMPO 1910/1912 05015G25KT =
SR / SS: 06:55 / 15:40 UTC ( 2018-11-18)

Luftsportportale

Verbände

Behörden

 
Bundesamt für Naturschutz:
Gebiete mit Vogelvorkommen mit besonderer Luftfahrtrelevanz (Aircraft relevant Bird Area)
1.   Allgemein
2.   Niederrhein

Fliegerärzte

Vereinsflieger